Weather History for Resolute, NU

Change the Weather History Date:

Friday, November 2, 2012

  Actual Average Record
Temperature  
Mean Temperature 2 °F -  
Max Temperature 5 °F 2 °F 24 °F (2011)
Min Temperature 1 °F -5 °F -22 °F (2002)
Degree Days  
Heating Degree Days 62    
Moisture  
Dew Point -5 °F    
Average Humidity 70    
Maximum Humidity 78    
Minimum Humidity 57    
Precipitation  
Precipitation 0.01 in - - ()
Sea Level Pressure  
Sea Level Pressure 30.02 in    
Wind  
Wind Speed 8 mph ()    
Max Wind Speed 14 mph    
Max Gust Speed -    
Visibility 9.2 miles    
Events Snow    
Averages and records for this station are not official NWS values.
T = Trace of Precipitation, MM = Missing Value Source: Averaged Metar Reports

Daily Weather History Graph

Daily Weather History Graph

Search for Another Location

Airport:

Trip Planner

Search our weather history database for the weather conditions in past years. The results will help you decide how hot, cold, wet, or windy it might be!

Date:

Astronomy

Nov. 02, 2012 Rise Set
Actual Time 11:34 AM CDT 2:31 PM CDT
Civil Twilight 9:22 AM CDT 4:42 PM CDT
Nautical Twilight 7:40 AM CDT 6:23 PM CDT
Astronomical Twilight 6:08 AM CDT 7:55 PM CDT
Moon No Moon Rise No Moon Set
Length of Visible Light 7h 20m
Length of Day
2h 57m
Waning Gibbous, 87% of the Moon is Illuminated
Nov 2
Waning Gibbous
Nov 6
Last Quarter
Nov 13
New
Nov 20
First Quarter
Nov 28
Full

Hourly Weather History & Observations

Time (CDT) Temp. Windchill Dew Point Humidity Pressure Visibility Wind Dir Wind Speed Gust Speed Precip Events Conditions
12:00 AM 1.4 °F -16.1 °F -4.0 °F 78% 29.98 in 3.0 mi NNW 12.7 mph - N/A Snow Light Snow
1:00 AM 2 °F - -6 °F 57% 30.00 in 7 mi NNW 12.7 mph - - Snow Light Snow
1:00 AM 1.4 °F -16.1 °F -5.8 °F 72% 30.00 in 8.0 mi NNW 12.7 mph - N/A Snow Light Snow
2:00 AM 3.2 °F -11.3 °F -4.0 °F 72% 30.00 in 6.0 mi NNW 9.2 mph - N/A Snow Light Snow
3:00 AM 3.2 °F -6.2 °F -4.0 °F 72% 30.01 in 6.0 mi NNW 4.6 mph - N/A Snow Light Snow
4:00 AM 5.0 °F -9.1 °F -2.2 °F 72% 30.01 in 4.0 mi West 9.2 mph - N/A Snow Light Snow
5:00 AM 5.0 °F -12.3 °F -2.2 °F 72% 30.01 in 10.0 mi West 13.8 mph - N/A Snow Light Snow
6:00 AM 3.2 °F -13.9 °F -2.2 °F 78% 30.01 in 8.0 mi West 12.7 mph - N/A Snow Light Snow
7:00 AM 4 °F - -3 °F 59% 30.01 in 4 mi West 11.5 mph - - Snow Light Snow
7:00 AM 3.2 °F -13.1 °F -2.2 °F 78% 30.01 in 4.0 mi West 11.5 mph - N/A Snow Light Snow
8:00 AM 3.2 °F -7.8 °F -4.0 °F 72% 30.01 in 10.0 mi NNW 5.8 mph - N/A Snow Light Snow
9:00 AM 1.4 °F -12.5 °F -5.8 °F 72% 30.01 in 10.0 mi NNW 8.1 mph - N/A Snow Light Snow
10:00 AM 1.4 °F -12.5 °F -5.8 °F 72% 30.02 in 12.0 mi NNW 8.1 mph - N/A Snow Light Snow
11:00 AM 1.4 °F -12.5 °F -5.8 °F 72% 30.03 in 12.0 mi NNW 8.1 mph - N/A Snow Light Snow
12:00 PM 1.4 °F -13.5 °F -7.6 °F 66% 30.03 in 12.0 mi North 9.2 mph - N/A Snow Light Snow
1:00 PM 1 °F - -6 °F 59% 30.03 in 10 mi NNW 8.1 mph - - Snow Light Snow
1:00 PM 1.4 °F -12.5 °F -5.8 °F 72% 30.03 in 10.0 mi NNW 8.1 mph - N/A Snow Light Snow
1:46 PM - - - N/A% - 12.0 mi NNW 5.8 mph - N/A   Unknown
2:00 PM 3.2 °F -9.1 °F -4.0 °F 72% 30.03 in 12.0 mi NNW 6.9 mph - N/A Snow Light Snow
3:00 PM 3.2 °F - -4.0 °F 72% 30.04 in 15.0 mi North 2.3 mph - N/A Snow Light Snow
4:00 PM 3.2 °F -7.8 °F -4.0 °F 72% 30.04 in 9.0 mi West 5.8 mph - N/A Snow Light Snow
5:00 PM 3.2 °F -9.1 °F -4.0 °F 72% 30.04 in 9.0 mi West 6.9 mph - N/A Snow Light Snow
5:49 PM - - - N/A% - 15.0 mi West 3.5 mph - N/A   Unknown
6:00 PM 3.2 °F -4.2 °F -4.0 °F 72% 30.03 in 15.0 mi WSW 3.5 mph - N/A Snow Light Snow
7:00 PM 1 °F - -6 °F 58% 30.02 in 15 mi Calm Calm - - Snow Light Snow
7:00 PM 1.4 °F - -5.8 °F 72% 30.02 in 15.0 mi Calm Calm - N/A Snow Light Snow
8:00 PM 1.4 °F -6.2 °F -5.8 °F 72% 30.01 in 15.0 mi SSE 3.5 mph - N/A Snow Light Snow
9:00 PM 3.2 °F -10.3 °F -4.0 °F 72% 30.00 in 15.0 mi SE 8.1 mph - N/A Snow Light Snow
9:46 PM - - - N/A% - 2.5 mi SE 10.4 mph - N/A   Unknown
10:00 PM 3.2 °F -11.3 °F -5.8 °F 66% 30.00 in 2.0 mi SE 9.2 mph - N/A Snow Light Snow
10:17 PM - - - N/A% - 4.0 mi SE 9.2 mph - N/A   Unknown
11:00 PM 5.0 °F -8.1 °F -2.2 °F 72% 29.99 in 4.0 mi SE 8.1 mph - N/A Snow Light Snow